Change the Weather History Date:

Friday, January 25, 2013

  Actual Average (KGRK) Record (KGRK)
Temperature  
Mean Temperature 60 °F -  
Max Temperature 75 °F 59 °F 80 °F (2005)
Min Temperature 46 °F 38 °F 28 °F (2014)
Degree Days  
Heating Degree Days 4    
Growing Degree Days 10 (Base 50)    
Moisture  
Dew Point 53 °F    
Average Humidity 74    
Maximum Humidity 100    
Minimum Humidity 50    
Precipitation  
Precipitation 0.00 in - - ()
Sea Level Pressure  
Sea Level Pressure 30.09 in    
Wind  
Wind Speed 6 mph (West)    
Max Wind Speed 13 mph    
Max Gust Speed 18 mph    
Visibility 10 miles    
Events      
Averages and records for this station are not official NWS values.
T = Trace of Precipitation, MM = Missing Value Source: NWS Daily Summary

Daily Weather History Graph

Daily Weather History Graph

Search for Another Location

Airport or City:

Trip Planner

Search our weather history database for the weather conditions in past years. The results will help you decide how hot, cold, wet, or windy it might be!

Date:

Astronomy

Jan. 25, 2013 Rise Set
Actual Time 7:28 AM CST 6:02 PM CST
Civil Twilight 7:02 AM CST 6:27 PM CST
Nautical Twilight 6:33 AM CST 6:57 PM CST
Astronomical Twilight 6:04 AM CST 7:26 PM CST
Moon 5:00 PM CST (1/25) 6:08 AM CST (1/25)
Length of Visible Light 11h 25m
Length of Day
10h 33m
Waxing Gibbous, 98% of the Moon is Illuminated
Jan 25
Waxing Gibbous
Jan 26
Full
Feb 3
Last Quarter
Feb 10
New
Feb 17
First Quarter

Hourly Weather History & Observations

Time (CST) Temp. Windchill Dew Point Humidity Pressure Visibility Wind Dir Wind Speed Gust Speed Precip Events Conditions
12:15 AM 64.4 °F - 57.2 °F 77% 30.09 in 10.0 mi SSW 6.9 mph - N/A   Clear
12:35 AM 64.4 °F - 55.4 °F 73% 30.08 in 10.0 mi SSW 5.8 mph - N/A   Clear
12:55 AM 62.6 °F - 55.4 °F 77% 30.08 in 10.0 mi SSW 5.8 mph - N/A   Clear
1:15 AM 62.6 °F - 55.4 °F 77% 30.08 in 10.0 mi SSW 9.2 mph - N/A   Clear
1:35 AM 62.6 °F - 55.4 °F 77% 30.07 in 10.0 mi SW 6.9 mph - N/A   Clear
1:55 AM 62.6 °F - 53.6 °F 72% 30.07 in 10.0 mi SSW 8.1 mph - N/A   Clear
2:15 AM 62.6 °F - 53.6 °F 72% 30.07 in 10.0 mi SW 9.2 mph - N/A   Clear
2:35 AM 64.4 °F - 53.6 °F 68% 30.06 in 10.0 mi SW 10.4 mph 16.1 mph N/A   Clear
2:55 AM 62.6 °F - 53.6 °F 72% 30.06 in 10.0 mi SW 6.9 mph - N/A   Clear
3:15 AM 62.6 °F - 53.6 °F 72% 30.06 in 10.0 mi SW 5.8 mph - N/A   Clear
3:35 AM 60.8 °F - 53.6 °F 77% 30.05 in 10.0 mi SW 4.6 mph - N/A   Clear
3:55 AM 60.8 °F - 53.6 °F 77% 30.05 in 10.0 mi SSW 4.6 mph - N/A   Clear
4:15 AM 60.8 °F - 55.4 °F 82% 30.04 in 10.0 mi SW 4.6 mph - N/A   Clear
4:35 AM 60.8 °F - 55.4 °F 82% 30.05 in 10.0 mi SW 5.8 mph - N/A   Clear
4:55 AM 60.8 °F - 55.4 °F 82% 30.05 in 10.0 mi SW 6.9 mph - N/A   Clear
5:15 AM 60.8 °F - 55.4 °F 82% 30.05 in 10.0 mi SW 4.6 mph - N/A   Clear
5:35 AM 59.0 °F - 53.6 °F 82% 30.05 in 10.0 mi SSW 3.5 mph - N/A   Clear
5:55 AM 57.2 °F - 53.6 °F 88% 30.05 in 10.0 mi Calm Calm - N/A   Clear
6:15 AM 57.2 °F - 53.6 °F 88% 30.06 in 10.0 mi Calm Calm - N/A   Clear
6:35 AM 57.2 °F - 55.4 °F 94% 30.05 in 10.0 mi Calm Calm - N/A   Clear
6:55 AM 57.2 °F - 55.4 °F 94% 30.06 in 10.0 mi Calm Calm - N/A   Clear
7:35 AM 55.4 °F - 53.6 °F 94% 30.07 in 7.0 mi Calm Calm - N/A   Clear
7:55 AM 55.4 °F - 55.4 °F 100% 30.08 in 10.0 mi Calm Calm - N/A   Clear
8:15 AM 57.2 °F - 55.4 °F 94% 30.08 in 10.0 mi Calm Calm - N/A   Clear
8:35 AM 60.8 °F - 57.2 °F 88% 30.09 in 10.0 mi Calm Calm - N/A   Clear
8:55 AM 60.8 °F - 59.0 °F 94% 30.09 in 10.0 mi SW 3.5 mph - N/A   Clear
9:15 AM 62.6 °F - 59.0 °F 88% 30.09 in 10.0 mi South 3.5 mph - N/A   Clear
9:35 AM 62.6 °F - 59.0 °F 88% 30.11 in 10.0 mi SSW 3.5 mph - N/A   Clear
9:55 AM 68.0 °F - 60.8 °F 78% 30.11 in 10.0 mi South 5.8 mph - N/A   Clear
10:15 AM 69.8 °F - 60.8 °F 73% 30.12 in 10.0 mi Calm Calm - N/A   Clear
10:35 AM 69.8 °F - 60.8 °F 73% 30.13 in 10.0 mi NNE 5.8 mph - N/A   Clear
10:55 AM 69.8 °F - 59.0 °F 68% 30.12 in 10.0 mi SSE 4.6 mph - N/A   Clear
11:15 AM 69.8 °F - 59.0 °F 68% 30.12 in 10.0 mi South 3.5 mph - N/A   Clear
11:35 AM 69.8 °F - 59.0 °F 68% 30.11 in 10.0 mi South 3.5 mph - N/A   Clear
11:55 AM 71.6 °F - 57.2 °F 60% 30.11 in 10.0 mi SSW 4.6 mph - N/A   Clear
12:15 PM 71.6 °F - 57.2 °F 60% 30.09 in 10.0 mi SSW 4.6 mph - N/A   Clear
12:35 PM 75.2 °F - 59.0 °F 57% 30.09 in 10.0 mi SW 5.8 mph - N/A   Clear
12:55 PM 75.2 °F - 59.0 °F 57% 30.08 in 10.0 mi SW 4.6 mph - N/A   Clear
1:15 PM 75.2 °F - 57.2 °F 53% 30.07 in 10.0 mi SW 4.6 mph - N/A   Clear
1:35 PM 75.2 °F - 55.4 °F 50% 30.05 in 10.0 mi Calm Calm - N/A   Clear
1:55 PM 75.2 °F - 55.4 °F 50% 30.05 in 10.0 mi WSW 5.8 mph - N/A   Clear
2:15 PM 75.2 °F - 55.4 °F 50% 30.04 in 10.0 mi Calm Calm - N/A   Clear
2:35 PM 73.4 °F - 59.0 °F 61% 30.05 in 10.0 mi North 11.5 mph - N/A   Clear
2:55 PM 69.8 °F - 55.4 °F 60% 30.05 in 10.0 mi NNE 11.5 mph 18.4 mph N/A   Clear
3:15 PM 69.8 °F - 55.4 °F 60% 30.05 in 10.0 mi North 12.7 mph 16.1 mph N/A   Clear
3:35 PM 71.6 °F - 57.2 °F 60% 30.04 in 10.0 mi North 11.5 mph - N/A   Clear
3:55 PM 73.4 °F - 59.0 °F 61% 30.05 in 10.0 mi North 11.5 mph - N/A   Clear
4:15 PM 71.6 °F - 59.0 °F 64% 30.05 in 10.0 mi NNE 9.2 mph - N/A   Clear
4:35 PM 69.8 °F - 53.6 °F 56% 30.06 in 10.0 mi NNE 11.5 mph - N/A   Clear
4:55 PM 69.8 °F - 53.6 °F 56% 30.07 in 10.0 mi NE 11.5 mph 16.1 mph N/A   Clear
5:15 PM 69.8 °F - 53.6 °F 56% 30.07 in 10.0 mi NNE 9.2 mph - N/A   Clear
5:35 PM 68.0 °F - 53.6 °F 60% 30.08 in 10.0 mi NE 10.4 mph - N/A   Clear
5:55 PM 66.2 °F - 53.6 °F 64% 30.09 in 10.0 mi NE 10.4 mph - N/A   Clear
6:15 PM 62.6 °F - 50.0 °F 63% 30.09 in 10.0 mi NNE 10.4 mph - N/A   Clear
6:35 PM 60.8 °F - 50.0 °F 68% 30.11 in 10.0 mi NNE 9.2 mph - N/A   Clear
6:55 PM 59.0 °F - 48.2 °F 67% 30.11 in 10.0 mi NNE 9.2 mph - N/A   Clear
7:15 PM 57.2 °F - 48.2 °F 72% 30.12 in 10.0 mi NNE 10.4 mph - N/A   Clear
7:35 PM 53.6 °F - 46.4 °F 77% 30.13 in 10.0 mi North 10.4 mph - N/A   Clear
7:55 PM 53.6 °F - 46.4 °F 77% 30.12 in 10.0 mi NNE 10.4 mph - N/A   Clear
8:15 PM 51.8 °F - 44.6 °F 76% 30.14 in 10.0 mi North 9.2 mph 17.3 mph N/A   Clear
8:35 PM 51.8 °F - 44.6 °F 76% 30.14 in 10.0 mi NNE 9.2 mph - N/A   Clear
8:55 PM 50.0 °F - 44.6 °F 82% 30.14 in 10.0 mi NNE 8.1 mph - N/A   Clear
9:15 PM 50.0 °F - 44.6 °F 82% 30.15 in 10.0 mi NNE 6.9 mph - N/A   Clear
9:35 PM 50.0 °F - 44.6 °F 82% 30.15 in 10.0 mi North 3.5 mph - N/A   Clear
9:55 PM 50.0 °F - 44.6 °F 82% 30.15 in 10.0 mi North 3.5 mph - N/A   Clear
10:15 PM 50.0 °F - 44.6 °F 82% 30.15 in 10.0 mi North 3.5 mph - N/A   Clear
10:35 PM 46.4 °F 45.2 °F 42.8 °F 87% 30.16 in 10.0 mi North 3.5 mph - N/A   Clear
10:55 PM 46.4 °F 45.2 °F 42.8 °F 87% 30.16 in 10.0 mi North 3.5 mph - N/A   Clear
11:15 PM 46.4 °F - 42.8 °F 87% 30.16 in 10.0 mi Calm Calm - N/A   Clear
11:35 PM 46.4 °F - 42.8 °F 87% 30.17 in 10.0 mi Calm Calm - N/A   Clear
11:55 PM 46.4 °F - 42.8 °F 87% 30.17 in 10.0 mi Calm Calm - N/A   Clear